Weather History for Oskaloosa, IA

Change the Weather History Date:

Wednesday, November 21, 2012

  Actual Average (KOTM) Record (KOTM)
Temperature  
Mean Temperature 50 °F 36 °F  
Max Temperature 69 °F 46 °F 70 °F (1990)
Min Temperature 32 °F 27 °F -6 °F (1937)
Degree Days  
Heating Degree Days 14 29  
Month to date heating degree days 491  
Since 1 July heating degree days 1015  
Cooling Degree Days 0 0  
Month to date cooling degree days 0  
Year to date cooling degree days 938  
Moisture  
Dew Point 38 °F    
Average Humidity 73    
Maximum Humidity 97    
Minimum Humidity 32    
Precipitation  
Precipitation 0.00 in 0.07 in 0.85 in (1898)
Month to date precipitation 1.74  
Year to date precipitation 35.06  
Sea Level Pressure  
Sea Level Pressure 30.10 in    
Wind  
Wind Speed 9 mph (South)    
Max Wind Speed 18 mph    
Max Gust Speed 23 mph    
Visibility 6 miles    
Events Fog    
T = Trace of Precipitation, MM = Missing Value Source: NWS Daily Summary

Daily Weather History Graph

Daily Weather History Graph

Search for Another Location

Airport:

Trip Planner

Search our weather history database for the weather conditions in past years. The results will help you decide how hot, cold, wet, or windy it might be!

Date:

Astronomy

Nov. 21, 2012 Rise Set
Actual Time 7:05 AM CST 4:45 PM CST
Civil Twilight 6:35 AM CST 5:16 PM CST
Nautical Twilight 6:01 AM CST 5:49 PM CST
Astronomical Twilight 5:28 AM CST 6:22 PM CST
Moon 1:06 PM CST (11/21) 12:21 AM CST (11/21)
Length of Visible Light 10h 40m
Length of Day
9h 40m
First Quarter, 62% of the Moon is Illuminated
Nov 21
First Quarter
Nov 28
Full
Dec 6
Last Quarter
Dec 13
New
Dec 19
First Quarter

Hourly Weather History & Observations

Time (CST) Temp. Windchill Dew Point Humidity Pressure Visibility Wind Dir Wind Speed Gust Speed Precip Events Conditions
12:15 AM 32.4 °F 27.9 °F 31.6 °F 97% 30.19 in 0.2 mi SSE 4.6 mph - N/A Fog Fog
12:35 AM 32.5 °F 28.1 °F 31.8 °F 97% 30.19 in 0.2 mi SSE 4.6 mph - N/A Fog Fog
12:55 AM 32.4 °F 27.9 °F 31.6 °F 97% 30.19 in 0.2 mi SSE 4.6 mph - N/A Fog Fog
1:15 AM 32.0 °F 26.4 °F 30.9 °F 96% 30.18 in 0.2 mi South 5.8 mph - N/A Fog Fog
1:35 AM 32.0 °F 27.5 °F 30.9 °F 96% 30.18 in 0.5 mi SSE 4.6 mph - N/A Fog Fog
1:55 AM 32.0 °F 26.4 °F 31.1 °F 96% 30.18 in 0.2 mi SSE 5.8 mph - N/A Fog Fog
2:15 AM 32.0 °F 26.4 °F 31.1 °F 96% 30.18 in 0.2 mi SSE 5.8 mph - N/A Fog Fog
2:35 AM 32.4 °F 26.9 °F 31.6 °F 97% 30.18 in 0.2 mi SSE 5.8 mph - N/A Fog Fog
2:55 AM 32.0 °F 24.8 °F 31.1 °F 96% 30.18 in 0.5 mi SSE 8.1 mph - N/A Fog Fog
3:15 AM 32.0 °F 24.8 °F 31.1 °F 96% 30.17 in 0.8 mi SSE 8.1 mph - N/A   Mist
3:35 AM 32.0 °F 24.8 °F 31.1 °F 96% 30.17 in 0.5 mi SSE 8.1 mph - N/A Fog Fog
3:55 AM 32.5 °F 28.1 °F 31.8 °F 97% 30.17 in 0.8 mi SSE 4.6 mph - N/A   Mist
4:15 AM 32.0 °F 26.4 °F 30.9 °F 96% 30.18 in 0.5 mi SSE 5.8 mph - N/A Fog Fog
4:35 AM 32.0 °F 24.8 °F 30.9 °F 96% 30.18 in 0.5 mi SSE 8.1 mph - N/A Fog Fog
4:55 AM 32.0 °F 26.4 °F 31.1 °F 96% 30.18 in 1.0 mi SSE 5.8 mph - N/A   Mist
5:15 AM 32.0 °F 24.8 °F 31.3 °F 97% 30.18 in 0.5 mi SSE 8.1 mph - N/A Fog Fog
5:35 AM 32.9 °F 25.9 °F 32.0 °F 96% 30.18 in 0.2 mi SSE 8.1 mph - N/A Fog Fog
5:55 AM 33.8 °F 27.7 °F 32.4 °F 94% 30.18 in 0.2 mi SSE 6.9 mph - N/A Fog Fog
6:15 AM 33.3 °F 27.1 °F 32.0 °F 95% 30.18 in 0.2 mi SSE 6.9 mph - N/A Fog Fog
6:35 AM 32.9 °F 26.7 °F 32.0 °F 96% 30.17 in 0.5 mi SSE 6.9 mph - N/A Fog Fog
6:55 AM 33.1 °F 26.1 °F 32.0 °F 96% 30.17 in 0.5 mi SSE 8.1 mph - N/A Fog Fog
7:15 AM 33.1 °F 26.1 °F 32.0 °F 96% 30.17 in 0.5 mi SSE 8.1 mph - N/A Fog Fog
7:35 AM 33.8 °F 25.8 °F 32.5 °F 95% 30.17 in 0.2 mi SSE 10.4 mph - N/A Fog Fog
7:55 AM 34.3 °F 27.7 °F 33.1 °F 95% 30.17 in 0.2 mi SSE 8.1 mph - N/A Fog Fog
8:15 AM 35.6 °F 30.7 °F 34.2 °F 94% 30.18 in 0.5 mi SSE 5.8 mph - N/A Fog Fog
8:35 AM 38.3 °F 31.9 °F 36.9 °F 95% 30.18 in 1.2 mi South 9.2 mph - N/A   Mist
8:55 AM 42.1 °F 36.1 °F 40.5 °F 94% 30.18 in 2.5 mi South 10.4 mph - N/A   Clear
9:15 AM 43.9 °F 38.8 °F 42.3 °F 94% 30.18 in 4.0 mi South 9.2 mph - N/A   Clear
9:35 AM 45.9 °F 41.2 °F 44.4 °F 95% 30.17 in 5.0 mi South 9.2 mph - N/A   Clear
9:55 AM 48.4 °F - 46.8 °F 94% 30.17 in 7.0 mi South 12.7 mph - N/A   Clear
10:15 AM 51.8 °F - 49.6 °F 92% 30.17 in 7.0 mi South 11.5 mph - N/A   Clear
10:35 AM 55.0 °F - 46.9 °F 74% 30.16 in 10.0 mi South 11.5 mph - N/A   Clear
10:55 AM 58.8 °F - 45.1 °F 60% 30.15 in 10.0 mi SSW 13.8 mph - N/A   Clear
11:15 AM 61.0 °F - 44.8 °F 55% 30.14 in 10.0 mi SSW 13.8 mph - N/A   Clear
11:35 AM 62.6 °F - 43.5 °F 50% 30.13 in 10.0 mi SSW 13.8 mph - N/A   Clear
11:55 AM 64.0 °F - 43.2 °F 47% 30.12 in 10.0 mi SSW 12.7 mph - N/A   Clear
12:15 PM 65.3 °F - 42.6 °F 44% 30.11 in 10.0 mi SSW 13.8 mph - N/A   Clear
12:35 PM 66.7 °F - 41.4 °F 40% 30.10 in 10.0 mi South 10.4 mph 23.0 mph N/A   Clear
12:55 PM 68.2 °F - 39.9 °F 36% 30.10 in 10.0 mi SSW 18.4 mph - N/A   Clear
1:15 PM 68.4 °F - 38.8 °F 34% 30.09 in 10.0 mi SW 16.1 mph - N/A   Clear
1:35 PM 69.3 °F - 38.7 °F 33% 30.08 in 10.0 mi SW 18.4 mph - N/A   Clear
1:55 PM 69.8 °F - 38.7 °F 32% 30.07 in 10.0 mi SSW 16.1 mph - N/A   Clear
2:15 PM 69.8 °F - 38.5 °F 32% 30.06 in 10.0 mi SSW 15.0 mph 21.9 mph N/A   Clear
2:35 PM 69.3 °F - 38.1 °F 32% 30.05 in 10.0 mi SSW 15.0 mph - N/A   Clear
2:55 PM 68.9 °F - 38.1 °F 32% 30.05 in 10.0 mi SSW 16.1 mph - N/A   Clear
3:15 PM 68.2 °F - 38.3 °F 33% 30.05 in 10.0 mi SW 13.8 mph - N/A   Clear
3:35 PM 67.6 °F - 38.5 °F 34% 30.04 in 10.0 mi SSW 12.7 mph - N/A   Clear
3:55 PM 66.6 °F - 38.3 °F 35% 30.04 in 10.0 mi SSW 11.5 mph - N/A   Clear
4:15 PM 64.6 °F - 38.7 °F 38% 30.03 in 10.0 mi South 10.4 mph - N/A   Clear
4:35 PM 61.9 °F - 38.8 °F 43% 30.03 in 10.0 mi South 10.4 mph - N/A   Clear
4:55 PM 57.7 °F - 39.4 °F 50% 30.03 in 10.0 mi South 10.4 mph - N/A   Clear
5:15 PM 55.2 °F - 40.1 °F 57% 30.02 in 10.0 mi South 10.4 mph - N/A   Clear
5:35 PM 52.3 °F - 39.6 °F 62% 30.02 in 10.0 mi South 11.5 mph - N/A   Clear
5:55 PM 52.0 °F - 39.2 °F 62% 30.02 in 10.0 mi South 11.5 mph - N/A   Clear
6:15 PM 50.9 °F - 39.6 °F 65% 30.02 in 10.0 mi South 11.5 mph - N/A   Clear
6:35 PM 51.3 °F - 40.1 °F 66% 30.01 in 10.0 mi South 12.7 mph - N/A   Clear
6:55 PM 52.7 °F - 41.9 °F 67% 30.01 in 10.0 mi South 13.8 mph - N/A   Clear
7:15 PM 53.2 °F - 42.4 °F 67% 30.00 in 10.0 mi South 13.8 mph - N/A   Clear
7:35 PM 52.7 °F - 42.3 °F 68% 30.00 in 10.0 mi South 12.7 mph - N/A   Clear
7:55 PM 52.0 °F - 41.9 °F 69% 30.00 in 10.0 mi South 12.7 mph - N/A   Clear
8:15 PM 52.0 °F - 41.4 °F 67% 30.00 in 10.0 mi South 11.5 mph - N/A   Clear
8:35 PM 50.4 °F - 41.0 °F 70% 30.00 in 10.0 mi South 9.2 mph - N/A   Clear
8:55 PM 48.7 °F - 40.3 °F 73% 30.01 in 10.0 mi South 9.2 mph - N/A   Clear
9:15 PM 47.7 °F - 40.1 °F 75% 30.01 in 10.0 mi South 8.1 mph - N/A   Clear
9:35 PM 47.3 °F - 39.7 °F 75% 30.01 in 10.0 mi South 9.2 mph - N/A   Clear
9:55 PM 46.8 °F - 39.7 °F 77% 30.01 in 10.0 mi South 10.4 mph - N/A   Clear
10:15 PM 46.6 °F - 39.7 °F 77% 30.01 in 10.0 mi South 10.4 mph - N/A   Clear
10:35 PM 46.9 °F - 40.1 °F 77% 30.00 in 10.0 mi South 10.4 mph - N/A   Clear
10:55 PM 47.3 °F - 40.1 °F 76% 29.99 in 10.0 mi South 10.4 mph - N/A   Clear
11:15 PM 47.8 °F - 40.1 °F 75% 29.98 in 10.0 mi SSE 11.5 mph - N/A   Clear
11:35 PM 48.2 °F - 40.1 °F 74% 29.98 in 10.0 mi South 12.7 mph - N/A   Clear
11:55 PM 49.1 °F - 40.1 °F 71% 29.97 in 10.0 mi SSE 11.5 mph - N/A   Clear